GW3793 Weather Reports


Display with metric or nautical units.
time (UTC)temp
F
wind
direction
speed
MPH
gust
MPH
rain 1hr
in
rain 24hr
in
rain mn
in
humidity
%
barometer
mb
20260509062703 43 130 1.0 3.0 0.00 0.24 0.24 91 1016.6
20260509061803 43 124 1.0 4.0 0.00 0.24 0.24 91 1016.8
20260509060903 43 127 1.0 4.0 0.00 0.24 0.24 91 1016.6
20260509060003 44 136 0.0 3.0 0.00 0.24 0.24 91 1016.4
20260509055403 44 121 0.0 4.0 0.00 0.24 0.24 91 1016.6
20260509054718 43 103 0.0 3.0 0.00 0.24 0.24 91 1016.7
20260509053817 43 118 2.0 6.0 0.00 0.24 0.24 91 1016.4
20260509052703 43 123 1.0 4.0 0.00 0.24 0.24 91 1016.4
20260509051803 44 129 0.0 2.0 0.00 0.24 0.24 91 1016.4
20260509050903 44 130 1.0 3.0 0.00 0.24 0.24 91 1016.1
20260509050003 44 52 0.0 2.0 0.00 0.24 0.24 90 1016.2
20260509045403 44 52 0.0 2.0 0.00 0.24 0.24 90 1016.2
20260509044503 44 78 0.0 2.0 0.00 0.24 0.24 90 1016.0
20260509043603 44 116 0.0 2.0 0.00 0.24 0.24 90 1016.0
20260509042703 44 137 1.0 2.0 0.00 0.24 0.24 90 1016.0
20260509041803 44 145 2.0 4.0 0.00 0.24 0.24 90 1015.9
20260509040903 44 141 1.0 3.0 0.00 0.24 0.24 89 1015.9
20260509040003 44 149 2.0 6.0 0.00 0.24 0.24 89 1015.7
20260509035403 44 141 1.0 6.0 0.00 0.24 0.24 89 1015.8
20260509034503 44 130 2.0 6.0 0.00 0.24 0.24 88 1015.6
20260509033603 45 127 2.0 5.0 0.00 0.24 0.24 88 1015.8
20260509032703 45 153 2.0 4.0 0.00 0.24 0.24 89 1015.3
20260509031803 45 130 1.0 3.0 0.00 0.24 0.24 88 1015.2
20260509030903 45 82 1.0 5.0 0.00 0.24 0.24 87 1015.1
20260509030003 45 37 4.0 11.0 0.01 0.24 0.24 88 1015.2
20260509025403 45 33 4.0 11.0 0.01 0.24 0.24 89 1015.2
20260509024717 45 35 3.0 14.0 0.02 0.24 0.24 89 1014.9
20260509023603 45 43 4.0 17.0 0.05 0.24 0.24 89 1015.2
20260509022703 46 19 5.0 13.0 0.06 0.24 0.24 89 1015.3
20260509022016 46 23 3.0 13.0 0.07 0.24 0.24 91 1015.1
20260509020903 46 13 3.0 7.0 0.10 0.24 0.24 90 1015.2
20260509020003 46 7 3.0 9.0 0.14 0.24 0.24 90 1015.1
20260509015403 46 12 3.0 9.0 0.17 0.23 0.23 91 1015.1
20260509014503 46 16 2.0 11.0 0.22 0.22 0.22 90 1015.1
20260509013603 46 357 2.0 11.0 0.20 0.20 0.20 89 1015.0
20260509012703 46 351 2.0 10.0 0.19 0.19 0.19 89 1014.9
20260509012018 47 336 1.0 4.0 0.18 0.18 0.18 88 1014.9
20260509010903 47 358 1.0 7.0 0.14 0.14 0.14 88 1014.8
20260509010003 49 328 2.0 7.0 0.10 0.10 0.10 83 1014.8
20260509005403 51 308 3.0 7.0 0.07 0.07 0.07 78 1014.4
20260509004503 55 300 3.0 11.0 0.00 0.00 0.00 62 1013.8
20260509003603 58 177 1.0 5.0 0.00 0.00 0.00 53 1013.4
20260509002704 58 162 1.0 4.0 0.00 0.00 0.00 52 1013.0
20260509001803 58 162 2.0 4.0 0.00 0.00 0.00 52 1012.5
20260509000903 59 163 2.0 4.0 0.00 0.00 0.00 52 1012.8
20260509000003 60 158 2.0 6.0 0.00 0.00 0.00 50 1012.5
20260508235403 60 163 2.0 6.0 0.00 0.00 0.00 50 1012.8
20260508234503 61 165 2.0 6.0 0.00 0.00 0.00 50 1012.4
20260508233603 61 170 2.0 5.0 0.00 0.00 0.00 52 1012.6
20260508232703 61 168 3.0 6.0 0.00 0.00 0.00 50 1012.4
20260508231803 61 178 3.0 6.0 0.00 0.00 0.00 50 1012.6
20260508231117 60 174 3.0 6.0 0.00 0.00 0.00 50 1012.5
20260508230003 60 171 3.0 8.0 0.00 0.00 0.00 53 1012.8
20260508225403 60 170 3.0 8.0 0.00 0.00 0.00 52 1012.5
20260508224717 60 175 3.0 8.0 0.00 0.00 0.00 51 1013.0
20260508223816 60 183 2.0 4.0 0.00 0.00 0.00 50 1012.8
20260508222703 60 179 3.0 6.0 0.00 0.00 0.00 51 1012.4
20260508222017 59 175 3.0 6.0 0.00 0.00 0.00 52 1013.0
20260508220903 59 200 1.0 5.0 0.00 0.00 0.00 51 1012.5
20260508220003 59 201 2.0 8.0 0.00 0.00 0.00 50 1012.5
20260508215403 59 185 2.0 6.0 0.00 0.00 0.00 50 1012.6
20260508214504 59 175 3.0 9.0 0.00 0.00 0.00 50 1012.8
20260508213603 60 187 3.0 9.0 0.00 0.00 0.00 50 1012.8
20260508212917 60 171 4.0 12.0 0.00 0.00 0.00 51 1012.5
20260508211803 61 192 1.0 7.0 0.00 0.00 0.00 48 1012.2
20260508211118 61 171 3.0 8.0 0.00 0.00 0.00 48 1012.3
20260508210003 62 173 3.0 7.0 0.00 0.00 0.00 47 1012.0
20260508205403 62 181 2.0 6.0 0.00 0.00 0.00 47 1012.0
20260508204718 62 184 1.0 5.0 0.00 0.00 0.00 46 1011.9
20260508203603 62 214 1.0 4.0 0.00 0.00 0.00 45 1011.9
20260508202703 62 181 3.0 9.0 0.00 0.00 0.00 43 1012.0
20260508201803 62 174 3.0 8.0 0.00 0.00 0.00 43 1011.9
20260508201117 62 190 2.0 7.0 0.00 0.00 0.00 43 1011.7
20260508200003 63 184 3.0 7.0 0.00 0.00 0.00 41 1011.7
20260508195403 63 195 2.0 7.0 0.00 0.00 0.00 41 1011.7
20260508194718 63 175 4.0 11.0 0.00 0.00 0.00 43 1011.6
20260508193817 63 172 3.0 11.0 0.00 0.00 0.00 44 1011.7
20260508192703 62 174 3.0 9.0 0.00 0.00 0.00 44 1011.6
20260508192018 62 179 3.0 9.0 0.00 0.00 0.00 41 1011.4
20260508190903 62 221 2.0 6.0 0.00 0.00 0.00 41 1011.9
20260508190003 62 185 3.0 8.0 0.00 0.00 0.00 41 1011.7
20260508185403 62 176 4.0 10.0 0.00 0.00 0.00 42 1011.7
20260508184503 62 165 3.0 12.0 0.00 0.00 0.00 43 1011.4
20260508183817 62 181 2.0 8.0 0.00 0.00 0.00 43 1011.5
20260508182703 62 175 3.0 7.0 0.00 0.00 0.00 43 1011.4
20260508181803 62 167 3.0 9.0 0.00 0.00 0.00 44 1011.5
20260508180903 62 181 3.0 9.0 0.00 0.00 0.00 44 1011.4
20260508180218 62 195 2.0 9.0 0.00 0.00 0.00 42 1011.3
20260508175403 63 187 3.0 8.0 0.00 0.00 0.00 43 1011.5
20260508174503 63 169 4.0 9.0 0.00 0.00 0.00 43 1011.4
20260508173603 63 174 4.0 9.0 0.00 0.00 0.00 44 1011.4
20260508172703 62 174 4.0 10.0 0.00 0.00 0.00 43 1011.4
20260508171803 62 177 4.0 11.0 0.00 0.00 0.00 43 1011.4
20260508170903 62 170 4.0 10.0 0.00 0.00 0.00 44 1011.4
20260508170003 62 167 4.0 8.0 0.00 0.00 0.00 46 1011.7
20260508165403 61 165 4.0 8.0 0.00 0.00 0.00 46 1011.5
20260508164503 60 173 3.0 6.0 0.00 0.00 0.00 46 1011.6
20260508163603 60 168 3.0 6.0 0.00 0.00 0.00 46 1011.6
20260508162917 59 168 3.0 6.0 0.00 0.00 0.00 45 1011.6
20260508161803 59 169 2.0 5.0 0.00 0.00 0.00 47 1011.5
20260508160903 59 159 3.0 6.0 0.00 0.00 0.00 46 1011.6
20260508160003 58 173 4.0 7.0 0.00 0.00 0.00 46 1011.9
20260508155403 58 175 3.0 6.0 0.00 0.00 0.00 46 1011.9
20260508154503 57 174 3.0 5.0 0.00 0.00 0.00 51 1011.6
20260508153603 56 172 3.0 4.0 0.00 0.00 0.00 51 1011.9
20260508152703 55 166 2.0 4.0 0.00 0.00 0.00 53 1011.7
20260508151803 54 166 2.0 4.0 0.00 0.00 0.00 55 1012.1
20260508150903 53 160 2.0 3.0 0.00 0.00 0.00 59 1012.2
20260508150004 51 168 2.0 4.0 0.00 0.00 0.00 60 1012.4
20260508145403 51 163 2.0 4.0 0.00 0.00 0.00 61 1012.0
20260508144503 50 169 2.0 3.0 0.00 0.00 0.00 61 1011.9
20260508143603 50 173 1.0 4.0 0.00 0.00 0.00 63 1012.1
20260508142703 48 176 1.0 2.0 0.00 0.00 0.00 64 1012.1
20260508142018 47 166 0.0 2.0 0.00 0.00 0.00 66 1012.1
20260508140903 46 157 1.0 2.0 0.00 0.00 0.00 67 1012.1
20260508140003 44 173 1.0 3.0 0.00 0.00 0.00 70 1012.1
20260508135403 43 167 1.0 3.0 0.00 0.00 0.00 70 1012.1
20260508134503 41 165 1.0 2.0 0.00 0.00 0.00 71 1011.9
20260508133603 40 160 0.0 2.0 0.00 0.00 0.00 71 1012.1
20260508132703 40 142 0.0 2.0 0.00 0.00 0.00 71 1012.1
20260508131803 40 52 0.0 2.0 0.00 0.00 0.00 72 1012.1
20260508130903 40 161 0.0 1.0 0.00 0.00 0.00 72 1012.0
20260508130003 40 132 0.0 2.0 0.00 0.00 0.00 73 1012.0
20260508125403 40 143 0.0 2.0 0.00 0.00 0.00 73 1012.1
20260508124503 40 132 0.0 3.0 0.00 0.00 0.00 73 1012.1
20260508123603 40 173 1.0 2.0 0.00 0.00 0.00 73 1011.7
20260508122918 40 168 1.0 2.0 0.00 0.00 0.00 71 1012.2
20260508121803 40 163 0.0 3.0 0.00 0.00 0.00 70 1012.0
20260508120903 40 166 1.0 4.0 0.00 0.00 0.00 71 1012.3
20260508120004 40 156 0.0 2.0 0.00 0.00 0.00 68 1012.2
20260508115403 40 171 0.0 2.0 0.00 0.00 0.00 69 1012.3
20260508114503 41 163 0.0 2.0 0.00 0.00 0.00 68 1012.2
20260508113603 41 148 0.0 2.0 0.00 0.00 0.00 67 1012.5
20260508112703 41 146 1.0 2.0 0.00 0.00 0.00 68 1012.3
20260508111803 41 164 1.0 3.0 0.00 0.00 0.00 68 1012.4
20260508110903 41 170 1.0 3.0 0.00 0.00 0.00 68 1012.2
20260508110003 41 167 1.0 3.0 0.00 0.00 0.00 69 1012.3
20260508105403 41 131 0.0 2.0 0.00 0.00 0.00 69 1012.4
20260508104503 41 160 0.0 2.0 0.00 0.00 0.00 70 1012.6
20260508103603 42 167 0.0 2.0 0.00 0.00 0.00 69 1012.5
20260508102703 42 175 1.0 3.0 0.00 0.00 0.00 67 1012.5
20260508101803 41 177 1.0 3.0 0.00 0.00 0.00 66 1012.6
20260508100903 41 0 0.0 0.0 0.00 0.00 0.00 65 1012.8
20260508100217 42 83 0.0 2.0 0.00 0.00 0.00 66 1012.5
20260508095617 42 81 0.0 2.0 0.00 0.00 0.00 66 1012.6
20260508094503 42 182 0.0 3.0 0.00 0.00 0.00 66 1012.6
20260508093603 43 183 0.0 2.0 0.00 0.00 0.00 63 1012.9
20260508092703 44 186 1.0 4.0 0.00 0.00 0.00 64 1012.9
20260508091803 43 176 1.0 4.0 0.00 0.00 0.00 63 1013.0
20260508090903 44 167 0.0 2.0 0.00 0.00 0.00 62 1013.1
20260508090217 44 190 0.0 2.0 0.00 0.00 0.00 63 1013.1
20260508085403 44 178 1.0 2.0 0.00 0.00 0.00 61 1013.3
20260508084504 45 168 1.0 3.0 0.00 0.00 0.00 61 1013.1
20260508083603 45 169 1.0 2.0 0.00 0.00 0.00 59 1013.2
20260508082703 45 173 1.0 2.0 0.00 0.00 0.00 58 1013.3
20260508082018 45 172 1.0 2.0 0.00 0.00 0.00 57 1013.3
20260508080903 46 158 1.0 2.0 0.00 0.00 0.00 58 1013.3
20260508080003 46 160 1.0 3.0 0.00 0.00 0.00 58 1013.4
20260508075618 46 152 1.0 3.0 0.00 0.00 0.00 58 1013.4
20260508074717 46 161 1.0 3.0 0.00 0.00 0.00 58 1013.7
20260508073603 46 187 0.0 2.0 0.00 0.00 0.00 59 1013.4
20260508072918 46 164 1.0 3.0 0.00 0.00 0.00 58 1013.5
20260508071803 46 151 2.0 4.0 0.00 0.00 0.00 56 1013.4
20260508070903 45 354 0.0 3.0 0.00 0.00 0.00 56 1013.7
20260508070003 46 142 0.0 2.0 0.00 0.00 0.00 55 1013.8
20260508065403 46 153 0.0 2.0 0.00 0.00 0.00 53 1013.7
20260508064503 46 160 1.0 3.0 0.00 0.00 0.00 52 1013.7
20260508063603 46 149 1.0 3.0 0.00 0.00 0.00 50 1013.7